Hourly Data Report for December 04, 2021

KELOWNA UBCO
BRITISH COLUMBIA
Current Station Operator: ECCC - MSC

49°56'26.700" N
119°24'00.760" W
456.00 m
1123996
71644
VKU

Download Data

Hourly Data (December 2021)
Hourly Data Report for December 4, 2021
TIME
LST
Temp Definition
°C
Dew Point Definition
°C
Rel Hum Definition
%
Precip. Amount Definition
mm

Wind Dir Definition
10's deg

Wind Spd Definition
km/h
Visibility Definition
km
Stn Press Definition
kPa
Hmdx Definition


Wind Chill Definition


Weather Definition


00:00 -1.2 -3.3 85 0.0       96.69     LegendNANA
01:00 -1.3 -3.2 87 0.0       96.61     LegendNANA
02:00 -1.3 -3.3 86 0.0       96.52     LegendNANA
03:00 -1.4 -3.1 88 0.0       96.47     LegendNANA
04:00 -1.4 -3.0 89 0.0       96.37     LegendNANA
05:00 -1.4 -2.5 92 0.2       96.28     LegendNANA
06:00 -1.6 -2.2 95 0.6       96.23     LegendNANA
07:00 -1.7 -2.3 96 1.1       96.18     LegendNANA
08:00 -1.8 -2.3 96 0.7       96.17     LegendNANA
09:00 -1.5 -2.1 95 0.6       96.13     LegendNANA
10:00 -1.0 -2.0 93 0.4       96.11     LegendNANA
11:00 -0.8 -2.1 91 0.1       96.09     LegendNANA
12:00 -0.3 -1.8 90 0.0       96.10     LegendNANA
13:00 -0.1 -1.3 92 0.1       96.13     LegendNANA
14:00 0.3 -1.0 91 0.2       96.19     LegendNANA
15:00 0.1 -0.9 92 0.0       96.26     LegendNANA
16:00 -0.1 -1.0 93 0.0       96.35     LegendNANA
17:00 -0.2 -1.0 94 0.0       96.38     LegendNANA
18:00 -0.2 -0.6 97 0.0       96.42     LegendNANA
19:00 -0.8 -1.2 97 0.0       96.45     LegendNANA
20:00 -0.7 -1.1 97 0.0       96.54     LegendNANA
21:00 -1.0 -1.5 97 0.0       96.62     LegendNANA
22:00 -1.7 -2.2 97 0.0       96.70     LegendNANA
23:00 -1.6 -2.2 96 1.0       96.88     LegendNANA

Notes on Data Quality.

Legend

  • E = Estimated
  • M = Missing
  • NA = Not Available*
  • [empty] = Indicates an unobserved value
Date modified: